Wind_Speed
18 27 20 17 13 13 9 1 2 1 4 8 16 19 10 11 12 11 9 10 13 12 14 19 13 13 18 18 14 13 18 14 10 9 8 6 9 10 9 10 7 9 11 5
30 28 22 17 17 14 9 4 7 3 6 5 9 18 12 9 8 12 13 11 10 7 14 18 11 11 9 15 14 12 12 12 11 11 9 7 8 10 10 8 8 10 8 2
34 32 21 21 19 17 10 11 11 4 7 11 12 14 17 10 5 9 13 10 9 10 15 18 9 17 20 16 16 15 13 12 9 10 9 9 10 9 8 9 9 8 8 5
34 26 22 18 13 15 20 20 17 13 14 12 15 12 14 14 13 9 8 4 5 8 5 11 13 10 18 16 11 14 13 14 13 11 11 12 10 9 9 8 8 7 6 4
35 25 23 17 18 18 20 17 6 5 7 9 14 13 16 16 21 20 9 8 6 6 5 5 4 11 21 18 18 11 10 14 16 15 10 10 12 11 9 9 7 6 5 4
32 29 17 10 12 15 15 10 7 4 4 7 13 13 11 20 20 15 7 10 2 4 1 5 8 8 16 17 17 16 16 11 13 15 11 11 14 13 11 10 7 5 6 9
34 18 10 9 5 1 10 14 13 10 9 13 11 17 17 18 18 18 9 7 7 1 3 9 10 8 17 14 10 18 17 22 23 20 16 6 11 15 15 12 11 9 8 8
21 14 13 10 5 4 8 20 19 17 10 12 16 15 18 21 24 17 22 12 14 5 5 11 8 11 17 19 8 13 22 28 25 47 22 8 2 10 16 17 16 15 14 13
21 14 11 7 7 5 7 19 17 19 12 13 11 9 11 11 15 16 9 17 20 25 7 13 8 14 27 28 23 21 24 28 24 32 21 20 12 13 15 18 19 22 20 20
26 18 15 11 7 2 2 20 21 15 15 16 16 14 14 16 13 10 21 15 11 13 4 9 12 22 24 24 24 23 24 23 25 23 27 24 25 27 20 22 25 22 24 22
24 18 12 12 10 6 3 6 21 20 19 21 20 19 16 17 19 16 8 12 17 20 9 13 22 20 26 30 25 26 26 24 27 26 24 22 26 31 25 26 28 27 28 29
17 17 13 12 13 12 11 13 14 19 24 23 25 26 27 27 23 22 19 18 16 19 20 21 26 26 28 30 32 24 28 27 27 28 26 26 29 32 33 34 31 31 31 32
19 17 16 15 18 20 20 20 20 21 26 28 29 31 34 32 31 29 25 26 32 23 24 28 31 36 35 35 36 38 35 34 35 34 32 31 33 35 38 39 37 36 34 35
17 17 18 21 25 26 28 30 29 26 28 31 31 31 34 38 40 38 38 38 36 30 31 33 38 40 40 37 37 43 48 46 41 40 40 40 39 40 42 44 44 42 40 39
20 21 19 19 23 30 36 40 38 36 32 34 29 32 38 42 44 39 41 38 37 34 37 42 46 43 40 42 45 46 46 49 51 50 48 46 42 41 44 46 47 47 45 44
26 25 26 27 22 23 26 33 38 39 39 41 42 40 33 33 29 25 29 31 35 38 44 47 41 41 43 46 48 51 53 53 51 45 46 49 51 47 43 45 49 51 51 50
25 23 15 14 15 20 23 29 35 41 43 41 38 36 37 33 38 35 34 40 44 44 44 43 44 47 49 52 52 52 49 48 48 49 48 46 45 46 45 43 42 45 48 49
22 20 19 17 23 29 26 27 28 31 32 33 33 31 31 32 34 34 39 39 39 40 41 43 46 49 51 53 51 52 53 53 52 52 51 49 48 44 43 43 45 46 44 43
18 23 26 23 26 27 27 25 23 24 27 28 27 27 27 30 32 33 34 34 34 37 40 42 45 48 47 50 53 54 56 58 57 57 56 54 51 48 41 42 44 47 48 47
28 28 25 25 24 23 22 24 22 21 24 23 26 28 31 33 33 33 31 33 37 40 43 45 44 43 48 50 54 55 53 51 52 54 55 54 50 48 44 42 41 41 44 46
29 27 25 23 23 19 19 20 20 23 21 23 28 31 33 35 35 34 35 37 38 40 42 39 39 42 45 45 43 42 40 39 42 46 48 49 47 43 45 44 43 42 40 41
30 28 27 26 23 22 19 21 24 24 25 26 27 29 30 30 31 33 34 36 38 38 37 39 38 42 42 41 39 36 38 37 39 43 44 41 36 38 42 47 46 45 43 42
32 29 30 27 24 22 21 22 24 26 27 27 27 27 27 29 30 32 34 36 37 37 37 38 38 42 39 38 35 34 39 38 41 39 38 35 33 38 42 45 46 46 47 48
31 31 29 26 24 24 24 24 26 27 26 29 29 28 28 29 31 32 34 35 35 35 35 37 42 45 38 38 38 39 40 42 43 43 41 37 33 33 35 40 45 46 46 47
29 27 25 26 26 26 25 26 25 26 27 27 27 26 27 29 31 31 33 32 31 31 35 39 39 35 31 34 36 38 42 42 42 42 42 42 37 36 37 39 42 44 44 46
28 27 28 28 28 28 27 25 25 26 26 26 24 26 28 29 30 31 31 29 29 32 34 37 36 34 35 38 39 39 40 42 44 44 44 42 41 44 42 40 36 38 43 41
Wind_Direction
179 173 166 166 150 139 135 175 340 71 339 5 360 339 359 64 67 42 18 18 3 348 6 14 4 21 22 22 28 45 51 65 60 58 65 58 32 35 39 35 15 351 341 360
167 179 176 174 165 155 169 224 247 244 309 0 343 314 319 11 32 29 9 1 338 326 14 1 22 359 14 13 5 16 38 55 60 62 55 34 15 26 17 16 30 20 22 32
177 190 184 180 184 171 185 226 240 266 291 300 300 285 298 298 348 3 354 6 40 342 328 344 339 347 355 7 354 356 7 12 24 40 49 54 47 38 21 10 21 33 35 30
180 179 181 187 195 185 210 228 237 246 247 248 248 266 284 295 313 323 336 6 36 8 23 20 2 31 355 331 342 351 348 353 353 357 7 19 31 39 41 16 5 17 23 10
182 182 190 207 204 193 216 238 253 241 254 218 235 266 285 290 289 293 314 357 39 35 31 324 323 355 327 326 326 341 343 333 336 335 344 357 358 4 21 22 6 341 336 322
190 203 209 188 166 208 230 246 203 223 241 193 233 258 294 294 283 289 332 322 107 199 107 350 331 340 337 328 334 322 325 302 288 289 315 335 341 347 355 6 14 1 335 312
206 214 175 182 141 42 237 207 198 198 218 217 234 263 291 315 314 274 282 273 223 41 233 340 11 330 332 345 345 305 309 297 300 275 258 238 325 330 335 329 342 338 321 317
202 171 174 166 107 330 246 200 201 219 233 246 245 269 300 314 311 290 268 239 227 218 292 326 342 354 347 345 308 268 304 312 324 328 262 12 340 320 312 317 321 318 320 309
167 157 174 196 136 75 213 198 211 235 247 272 288 323 311 334 302 292 297 236 239 239 217 297 344 350 331 326 317 312 310 306 332 335 330 358 340 312 306 304 298 302 303 299
180 184 183 171 139 93 142 214 227 242 259 275 281 288 307 304 322 332 308 245 298 281 231 305 328 326 330 339 322 319 318 308 322 330 330 326 329 323 310 296 295 290 290 289
199 199 189 187 180 214 223 250 231 234 253 267 274 285 277 275 296 309 292 286 308 306 312 310 320 317 326 325 324 314 308 307 309 315 315 314 300 306 297 286 285 287 284 282
193 194 192 216 233 227 232 234 240 246 255 267 277 280 284 292 296 302 300 304 293 287 296 301 311 316 315 310 309 297 297 301 301 304 306 301 295 292 288 288 279 277 282 282
204 211 215 226 249 253 253 252 248 255 261 265 273 279 284 289 290 288 282 291 301 296 302 312 315 317 313 312 306 307 308 307 309 307 302 297 293 289 285 285 279 276 279 276
216 244 251 239 243 258 269 273 268 262 265 271 279 280 287 289 290 294 297 298 305 313 313 310 312 313 310 307 307 310 311 311 308 304 302 298 293 289 285 282 279 277 274 271
236 249 252 253 262 259 257 259 266 269 270 269 278 289 284 281 285 290 292 300 298 307 308 307 307 307 306 307 308 308 309 309 307 304 300 294 288 284 282 281 279 276 272 269
241 255 269 276 289 285 281 273 269 270 267 268 275 282 295 283 293 302 301 301 301 300 299 300 304 302 305 308 310 310 309 308 305 301 292 288 289 286 279 276 276 275 274 271
262 270 265 258 272 294 279 278 276 277 280 281 282 279 285 287 294 298 296 298 300 303 302 301 303 309 311 312 310 308 307 305 302 300 298 298 290 281 281 279 276 273 272 273
261 261 264 265 277 288 290 283 283 279 275 275 278 281 279 284 288 289 287 289 295 298 298 301 305 310 311 311 310 308 308 307 303 298 294 290 289 285 278 277 277 277 275 274
254 256 267 282 293 293 296 294 295 292 283 283 286 286 287 286 283 284 289 293 292 291 295 304 308 309 308 308 309 310 307 304 302 299 295 289 284 281 275 272 271 272 273 272
259 280 291 292 298 299 296 301 299 298 296 302 298 291 285 283 286 288 294 297 299 306 308 306 306 309 310 310 310 306 306 306 305 304 300 293 287 277 276 274 269 269 268 268
273 279 285 292 297 294 291 298 293 285 289 273 273 276 281 284 288 293 293 295 300 299 300 303 305 307 309 311 310 312 312 310 309 309 303 294 283 280 272 269 269 269 268 263
271 279 290 293 290 293 297 292 286 283 281 279 276 277 279 284 285 287 291 294 296 300 301 303 305 308 310 315 311 313 315 313 322 321 316 308 280 273 272 269 267 268 268 267
274 280 285 287 286 290 287 283 280 282 286 290 289 285 283 284 287 292 294 298 300 301 301 302 299 304 305 309 314 312 310 315 313 317 324 318 301 285 278 272 268 266 267 267
268 271 275 279 281 282 280 280 283 284 283 281 282 283 286 289 291 295 297 300 302 304 308 306 305 305 300 303 305 312 312 313 317 316 316 314 314 304 294 284 276 272 268 267
267 272 275 277 280 281 279 277 278 277 276 277 281 285 287 290 295 298 303 305 307 309 308 313 313 304 303 310 311 314 314 318 319 319 317 314 310 306 298 287 282 277 271 268
271 276 278 282 284 282 281 286 285 283 284 287 288 289 293 297 299 301 303 305 307 305 309 317 321 314 303 310 317 317 318 321 323 321 319 317 312 304 300 292 285 288 279 265
Height
5906 5911 5913 5913 5915 5917 5917 5918 5918 5918 5919 5920 5918 5916 5918 5917 5918 5917 5915 5914 5914 5913 5912 5911 5909 5907 5905 5903 5899 5895 5893 5891 5892 5889 5888 5887 5886 5884 5882 5880 5880 5877 5872 5871
5906 5910 5911 5912 5914 5914 5915 5916 5917 5918 5918 5919 5919 5916 5917 5916 5916 5915 5916 5914 5914 5914 5913 5912 5910 5907 5904 5904 5902 5900 5897 5895 5894 5892 5890 5887 5885 5884 5884 5883 5879 5876 5874 5873
5904 5908 5911 5912 5912 5912 5914 5915 5916 5917 5917 5917 5918 5918 5914 5915 5915 5914 5914 5914 5914 5914 5912 5910 5909 5909 5908 5907 5906 5903 5899 5898 5895 5892 5890 5888 5884 5884 5886 5885 5882 5878 5876 5875
5904 5907 5908 5910 5911 5911 5913 5913 5914 5915 5915 5915 5915 5916 5914 5911 5909 5909 5912 5912 5912 5913 5911 5910 5908 5908 5906 5905 5906 5905 5903 5902 5899 5896 5892 5887 5884 5883 5882 5882 5882 5881 5879 5876
5900 5902 5903 5907 5908 5911 5912 5911 5914 5913 5912 5912 5914 5915 5913 5911 5909 5910 5913 5913 5912 5912 5908 5910 5909 5908 5907 5907 5906 5905 5904 5902 5898 5898 5894 5890 5888 5884 5881 5880 5880 5880 5879 5878
5899 5901 5905 5906 5906 5908 5910 5911 5913 5913 5912 5913 5913 5913 5913 5910 5909 5910 5912 5913 5912 5909 5908 5908 5907 5906 5907 5906 5905 5900 5900 5898 5894 5891 5889 5888 5887 5885 5882 5879 5878 5877 5877 5876
5898 5904 5906 5906 5905 5906 5907 5908 5910 5912 5910 5910 5911 5911 5911 5908 5906 5909 5912 5912 5911 5909 5908 5906 5906 5906 5905 5904 5900 5897 5894 5893 5882 5883 5882 5876 5881 5883 5880 5879 5876 5874 5873 5872
5901 5904 5904 5904 5904 5904 5904 5905 5908 5908 5908 5908 5910 5908 5907 5904 5901 5903 5908 5910 5909 5909 5906 5904 5905 5903 5899 5901 5900 5895 5891 5888 5886 5877 5864 5870 5864 5876 5877 5876 5872 5872 5869 5868
5899 5901 5903 5903 5902 5903 5903 5905 5906 5906 5905 5905 5906 5907 5904 5903 5901 5900 5901 5904 5908 5904 5903 5903 5902 5898 5894 5895 5892 5892 5891 5885 5885 5873 5874 5871 5871 5874 5874 5870 5869 5866 5865 5863
5895 5898 5899 5900 5901 5901 5902 5902 5903 5903 5903 5903 5903 5904 5904 5901 5900 5901 5899 5901 5900 5893 5902 5900 5898 5895 5888 5889 5886 5884 5882 5878 5878 5876 5871 5870 5866 5869 5869 5868 5866 5862 5859 5858
5893 5896 5899 5899 5898 5899 5899 5899 5900 5901 5901 5900 5900 5902 5899 5900 5900 5900 5898 5897 5895 5895 5898 5894 5893 5889 5883 5881 5883 5881 5879 5877 5873 5871 5869 5865 5867 5863 5862 5863 5861 5857 5852 5850
5891 5894 5895 5897 5895 5897 5897 5897 5898 5898 5897 5897 5896 5896 5895 5897 5898 5897 5896 5894 5894 5893 5892 5890 5886 5884 5880 5875 5874 5879 5875 5872 5869 5864 5862 5861 5859 5855 5853 5852 5853 5849 5845 5842
5891 5892 5893 5895 5895 5894 5893 5894 5894 5894 5893 5892 5892 5891 5888 5891 5892 5893 5892 5892 5891 5887 5883 5880 5878 5875 5875 5870 5864 5861 5863 5860 5854 5852 5851 5850 5847 5845 5843 5840 5841 5838 5835 5833
5889 5890 5891 5892 5893 5893 5890 5889 5889 5889 5890 5888 5888 5887 5883 5883 5883 5884 5884 5883 5881 5877 5875 5872 5870 5868 5866 5864 5860 5851 5841 5836 5841 5841 5838 5836 5834 5832 5830 5828 5826 5824 5823 5822
5885 5886 5887 5888 5888 5887 5886 5885 5884 5885 5887 5886 5884 5882 5880 5878 5875 5875 5875 5875 5872 5868 5865 5863 5861 5859 5856 5851 5846 5843 5838 5831 5823 5817 5816 5817 5820 5819 5815 5812 5811 5809 5809 5809
5881 5881 5882 5883 5882 5881 5881 5880 5878 5878 5880 5878 5878 5876 5872 5872 5873 5870 5867 5867 5865 5862 5859 5856 5853 5851 5846 5842 5838 5832 5826 5820 5816 5814 5809 5804 5801 5800 5800 5798 5796 5794 5794 5795
5878 5879 5878 5878 5879 5878 5876 5874 5872 5871 5871 5869 5870 5871 5869 5864 5861 5860 5859 5856 5851 5848 5847 5845 5841 5836 5832 5829 5825 5822 5817 5811 5806 5802 5798 5794 5789 5786 5783 5782 5782 5782 5781 5781
5873 5874 5876 5876 5875 5872 5870 5867 5867 5865 5864 5864 5862 5863 5862 5861 5859 5857 5855 5851 5847 5844 5841 5837 5833 5827 5821 5816 5811 5808 5805 5801 5795 5790 5785 5779 5775 5773 5772 5770 5766 5765 5766 5768
5867 5869 5871 5870 5868 5865 5863 5862 5860 5859 5857 5857 5857 5856 5855 5854 5852 5849 5846 5844 5841 5838 5835 5830 5825 5821 5815 5809 5802 5796 5790 5784 5779 5773 5768 5765 5761 5758 5759 5757 5755 5752 5752 5753
5862 5864 5863 5862 5861 5859 5858 5856 5855 5853 5851 5850 5849 5848 5847 5845 5843 5841 5838 5834 5831 5827 5823 5820 5816 5810 5804 5798 5792 5785 5778 5771 5763 5756 5751 5746 5744 5743 5743 5742 5741 5740 5739 5739
5857 5857 5858 5857 5856 5856 5855 5851 5849 5848 5851 5847 5844 5841 5838 5836 5834 5832 5829 5826 5824 5821 5816 5811 5807 5802 5796 5789 5781 5775 5769 5763 5755 5747 5738 5730 5726 5725 5726 5727 5726 5725 5725 5725
5850 5851 5851 5851 5851 5851 5850 5847 5844 5842 5840 5838 5837 5835 5833 5831 5828 5825 5824 5821 5817 5813 5808 5802 5797 5791 5786 5779 5772 5766 5760 5753 5745 5735 5726 5716 5711 5711 5710 5710 5711 5711 5711 5712
5844 5845 5845 5847 5845 5844 5842 5840 5838 5836 5834 5832 5830 5828 5826 5824 5822 5820 5816 5812 5808 5804 5800 5794 5788 5782 5775 5769 5761 5756 5750 5743 5737 5728 5719 5710 5704 5701 5698 5696 5696 5696 5696 5697
5837 5838 5839 5840 5839 5838 5836 5834 5832 5831 5829 5826 5823 5821 5820 5817 5814 5811 5808 5803 5799 5794 5789 5783 5777 5771 5765 5758 5751 5744 5738 5732 5724 5717 5710 5703 5698 5693 5689 5685 5682 5680 5680 5681
5831 5832 5833 5832 5831 5830 5829 5828 5826 5823 5821 5819 5817 5815 5813 5809 5806 5803 5798 5794 5790 5785 5780 5774 5767 5761 5756 5750 5743 5735 5728 5721 5714 5706 5698 5693 5687 5681 5677 5672 5668 5665 5664 5664
5825 5826 5824 5822 5822 5821 5821 5819 5817 5815 5813 5811 5810 5807 5804 5801 5798 5794 5790 5787 5783 5777 5772 5766 5759 5753 5747 5741 5734 5727 5719 5711 5703 5696 5688 5681 5674 5668 5662 5657 5654 5649 5648 5647